Project,Study,Ord_Occ,Event_Num,Cast_ID,Date_Time_UTC,Date_Time_PST,Lat_Dec,Lon_Dec,Sta_ID,Line,Sta,Depth,Pressure,PrQ,Temp1,Temp1Q,Temp2,Temp2Q,TempAve,Salt1,Salt1Q,Salt1_Corr,Salt2,Salt2Q,Salt2_Corr,SaltAve_Corr,Ox1,Ox1Q,Ox1_CruiseCorr,Ox1_StaCorr,Ox2,Ox2Q,Ox2_CruiseCorr,Ox2_StaCorr,OxAve_StaCorr,Ox1uM,Ox1uM_CruiseCorr,Ox1uM_StaCorr,Ox2uM,Ox2uM_CruiseCorr,Ox2uM_StaCorr,OxAveuM_StaCorr,FluorV,FluorQ,EstChl_CruiseCorr,EstChl_StaCorr,ISUSV,ISUSQ,EstNO3_CruiseCorr,EstNO3_StaCorr,SigThetaTS1,SigThetaTS1Q,SigThetaTS2,SigThetaTS2Q,BAT,XMiss,TransQ,pH,pHQ,SPAR,SPARQ,PAR,PARQ,PoT1,PoT2,DynHt,SVA,OxSat1,OxSat2,BTL_Depth,BTL_Temp,SaltB,OxB,OxBuM,Chl-a,Phaeo,NO3,NO2,NH4,PO4,SIL
CalCOFI,2007SR,005,6,2007_005d,14-Jul-2020 03:51:11,13-Jul-2020 19:51:11,32.84622,-117.53024,093.3 030.0,093.3,030.0,1.000,1.007,,23.1488,,23.1506,,23.1497,33.7427,,33.7429,33.7422,,33.7438,33.7434,5.8111,,6.0543,6.0612,3.7921,,5.1117,4.6157,5.3385,253.705,264.3545,261.7650,165.556,454.9814,185.9021,223.8336,0.1533,,1.3800,1.8382,0.2465,,0.0000,,22.9377,,22.9368,,0.9768,78.3323,,8.265,,5.7128E+00,,1.0000E-12,,23.1486,23.1503,0.0004,,117.938,76.963,1,23.270,33.7383,6.127,267.51,1.519,0.054,0.0,0.00,0.15,0.12,0.11
CalCOFI,2007SR,005,6,2007_005d,14-Jul-2020 03:51:36,13-Jul-2020 19:51:36,32.84622,-117.53024,093.3 030.0,093.3,030.0,2.000,2.014,,23.1404,,23.1405,,23.1405,33.7420,,33.7422,33.7420,,33.7436,33.7429,5.8299,,6.0740,6.0809,3.7715,,5.0625,4.5712,5.3261,254.524,265.2095,262.6067,164.658,456.9846,184.1359,223.3713,0.1488,,1.3268,1.7656,0.0354,,0.0000,,22.9396,,22.9396,,0.9780,78.3091,,8.268,,5.7128E+00,,1.0000E-12,,23.1400,23.1401,0.0138,,118.300,76.532,,,,,,,,,,,,
CalCOFI,2007SR,005,6,2007_005d,14-Jul-2020 03:51:40,13-Jul-2020 19:51:40,32.84622,-117.53024,093.3 030.0,093.3,030.0,3.000,3.021,,23.1404,,23.1381,,23.1393,33.7417,,33.7419,33.7409,,33.7425,33.7422,5.8225,,6.0662,6.0731,3.7726,,5.0651,4.5736,5.3234,254.201,264.8723,262.2747,164.704,456.1946,184.2263,223.2505,0.1846,,1.7499,2.3520,-99.0,,-99.0,,22.9394,,22.9395,,0.9821,78.2303,,8.268,,5.7128E+00,,1.0000E-12,,23.1398,23.1375,0.0192,,118.150,76.549,,,,,,,,,,,,
CalCOFI,2007SR,005,6,2007_005d,14-Jul-2020 03:51:42,13-Jul-2020 19:51:42,32.84622,-117.53024,093.3 030.0,093.3,030.0,4.000,4.028,,23.1581,,23.1586,,23.1584,33.7426,,33.7428,33.7423,,33.7439,33.7434,5.8555,,6.1007,6.1076,3.7716,,5.0627,4.5714,5.3395,255.642,266.3766,263.7556,164.663,459.7190,184.1457,223.9507,0.1490,,1.3292,1.7689,-99.0,,-99.0,,22.9351,,22.9348,,0.9742,78.3849,,8.268,,5.7128E+00,,1.0000E-12,,23.1573,23.1577,0.0241,,118.857,76.558,,,,,,,,,,,,
CalCOFI,2007SR,005,6,2007_005d,14-Jul-2020 03:51:43,13-Jul-2020 19:51:43,32.84622,-117.53024,093.3 030.0,093.3,030.0,5.000,5.035,,23.1602,,23.1562,,23.1582,33.7414,,33.7416,33.7417,,33.7433,33.7425,5.8729,,6.1189,6.1258,3.7722,,5.0642,4.5727,5.3493,256.403,267.1710,264.5377,164.691,461.5803,184.2008,224.3693,0.1523,,1.3682,1.8220,-99.0,,-99.0,,22.9336,,22.9350,,0.9772,78.3255,,8.268,,5.7128E+00,,1.0000E-12,,23.1592,23.1552,0.0291,,119.214,76.567,,,,,,,,,,,,
CalCOFI,2007SR,005,6,2007_005d,14-Jul-2020 03:51:45,13-Jul-2020 19:51:45,32.84622,-117.53024,093.3 030.0,093.3,030.0,6.000,6.043,,23.1319,,23.1332,,23.1326,33.7402,,33.7404,33.7401,,33.7417,33.7411,5.8945,,6.1415,6.1484,3.7744,,5.0694,4.5775,5.3630,257.343,268.1523,265.5038,164.787,463.8794,184.3896,224.9467,0.1476,,1.3127,1.7464,-99.0,,-99.0,,22.9409,,22.9405,,0.9767,78.3352,,8.268,,5.7128E+00,,1.0000E-12,,23.1307,23.1320,0.0340,,119.592,76.581,,,,,,,,,,,,
CalCOFI,2007SR,005,6,2007_005d,14-Jul-2020 03:51:48,13-Jul-2020 19:51:48,32.84622,-117.53024,093.3 030.0,093.3,030.0,7.000,7.050,,23.0891,,23.0909,,23.0900,33.7288,,33.7290,33.7313,,33.7329,33.7310,6.0802,,6.3355,6.3426,3.7872,,5.1000,4.6051,5.4739,265.451,276.6162,273.8364,165.342,483.7105,185.4812,229.6588,0.1458,,1.2914,1.7175,-99.0,,-99.0,,22.9446,,22.9460,,0.9870,78.1339,,8.269,,5.7128E+00,,1.0000E-12,,23.0876,23.0894,0.0390,,123.259,76.778,,,,,,,,,,,,
CalCOFI,2007SR,005,6,2007_005d,14-Jul-2020 03:51:50,13-Jul-2020 19:51:50,32.84622,-117.53024,093.3 030.0,093.3,030.0,8.000,8.057,,22.5817,,22.6270,,22.6044,33.7025,,33.7027,33.7051,,33.7067,33.7047,6.1440,,6.4022,6.4094,3.8366,,5.2179,4.7119,5.5607,268.202,279.4880,276.6636,167.481,490.4390,189.6882,233.1759,0.1922,,1.8399,2.4793,-99.0,,-99.0,,23.0693,,23.0585,,1.0165,77.5606,,8.278,,5.7128E+00,,1.0000E-12,,22.5801,22.6254,0.0439,,123.428,77.136,,,,,,,,,,,,
CalCOFI,2007SR,005,6,2007_005d,14-Jul-2020 03:51:52,13-Jul-2020 19:51:52,32.84622,-117.53024,093.3 030.0,093.3,030.0,9.000,9.064,,21.8539,,21.7742,,21.8141,33.6598,,33.6600,33.6729,,33.6745,33.6673,6.1985,,6.4591,6.4663,3.9243,,5.4273,4.9014,5.6839,270.538,281.9265,279.0643,171.274,496.1525,197.1483,238.1063,0.2322,,2.3137,3.1653,-99.0,,-99.0,,23.2406,,23.2727,,1.0343,77.2152,,8.283,,5.7128E+00,,1.0000E-12,,21.8521,21.7724,0.0486,,122.890,77.698,,,,,,,,,,,,
CalCOFI,2007SR,005,6,2007_005d,14-Jul-2020 03:51:54,13-Jul-2020 19:51:54,32.84622,-117.53024,093.3 030.0,093.3,030.0,10.000,10.071,,20.8745,,20.8952,,20.8849,33.6138,,33.6140,33.6325,,33.6341,33.6241,6.2856,,6.5501,6.5574,4.0013,,5.6111,5.0677,5.8126,274.278,285.8307,282.9080,174.596,505.3000,203.6821,243.2951,0.2615,,2.6614,3.6849,-99.0,,-99.0,,23.4721,,23.4806,,1.0246,77.4020,,8.288,,5.7128E+00,,1.0000E-12,,20.8726,20.8933,0.0532,,122.402,77.952,,,,,,,,,,,,
CalCOFI,2007SR,005,6,2007_005d,14-Jul-2020 03:51:56,13-Jul-2020 19:51:56,32.84622,-117.53024,093.3 030.0,093.3,030.0,11.000,11.078,,20.0148,,20.0499,,20.0324,33.6309,,33.6311,33.6377,,33.6393,33.6352,6.3189,,6.5849,6.5923,4.0816,,5.8028,5.2412,5.9168,275.666,287.2796,284.3344,178.064,508.6949,210.5030,247.4187,0.2421,,2.4311,3.3392,-99.0,,-99.0,,23.7143,,23.7103,,1.0071,77.7432,,8.284,,5.7128E+00,,1.0000E-12,,20.0128,20.0479,0.0575,,121.156,78.312,,,,,,,,,,,,
CalCOFI,2007SR,005,6,2007_005d,14-Jul-2020 03:51:58,13-Jul-2020 19:51:58,32.84622,-117.53024,093.3 030.0,093.3,030.0,12.000,12.085,,19.7459,,19.7673,,19.7566,33.6267,,33.6269,33.6312,,33.6328,33.6299,6.2713,,6.5352,6.5425,4.1174,,5.8883,5.3186,5.9306,273.568,285.0895,282.1783,179.613,503.5635,213.5495,247.8639,0.2273,,2.2556,3.0798,-99.0,,-99.0,,23.7813,,23.7791,,0.9781,78.3082,,8.279,,5.7128E+00,,1.0000E-12,,19.7437,19.7651,0.0617,,119.646,78.587,12,17.920,33.6062,6.657,290.27,2.879,0.103,0.0,0.00,0.27,0.17,0.21
CalCOFI,2007SR,005,6,2007_005d,14-Jul-2020 03:52:00,13-Jul-2020 19:52:00,32.84622,-117.53024,093.3 030.0,093.3,030.0,13.000,13.093,,19.5823,,19.6094,,19.5959,33.6333,,33.6335,33.6365,,33.6381,33.6358,6.2069,,6.4679,6.4751,4.1507,,5.9678,5.3905,5.9328,270.747,282.1447,279.2791,181.055,496.6637,216.3857,247.8324,0.2164,,2.1264,2.8911,-99.0,,-99.0,,23.8287,,23.8241,,0.9413,79.0326,,8.272,,5.7128E+00,,1.0000E-12,,19.5800,19.6071,0.0658,,118.064,78.993,,,,,,,,,,,,
CalCOFI,2007SR,005,6,2007_005d,14-Jul-2020 03:52:02,13-Jul-2020 19:52:02,32.84622,-117.53024,093.3 030.0,093.3,030.0,14.000,14.100,,19.2117,,19.1775,,19.1946,33.6136,,33.6138,33.6182,,33.6198,33.6168,6.2807,,6.5450,6.5523,4.2028,,6.0921,5.5031,6.0277,273.945,285.4831,282.5657,183.312,504.4856,220.8248,251.6953,0.3294,,3.4692,4.9447,-99.0,,-99.0,,23.9086,,23.9208,,0.9199,79.4545,,8.268,,5.7128E+00,,1.0000E-12,,19.2092,19.1750,0.0698,,118.635,79.337,,,,,,,,,,,,
CalCOFI,2007SR,005,6,2007_005d,14-Jul-2020 03:52:04,13-Jul-2020 19:52:04,32.84622,-117.53024,093.3 030.0,093.3,030.0,15.000,15.107,,18.6747,,18.5431,,18.6089,33.5840,,33.5842,33.5909,,33.5925,33.5884,6.3188,,6.5848,6.5922,4.2612,,6.2316,5.6293,6.1108,275.576,287.1857,284.2419,185.832,508.4748,225.7812,255.0116,0.2547,,2.5807,3.5630,-99.0,,-99.0,,24.0216,,24.0597,,0.9300,79.2556,,8.265,,5.7128E+00,,1.0000E-12,,18.6720,18.5404,0.0738,,118.143,79.478,,,,,,,,,,,,
CalCOFI,2007SR,005,6,2007_005d,14-Jul-2020 03:52:06,13-Jul-2020 19:52:06,32.84622,-117.53024,093.3 030.0,093.3,030.0,16.000,16.114,,18.2372,,18.1808,,18.2090,33.5811,,33.5813,33.5914,,33.5930,33.5872,6.3746,,6.6431,6.6505,4.2907,,6.3020,5.6930,6.1718,277.981,289.6963,286.7136,187.102,514.3571,228.2790,257.4963,0.2131,,2.0873,2.8343,-99.0,,-99.0,,24.1281,,24.1498,,0.9018,79.8156,,8.261,,5.7128E+00,,1.0000E-12,,18.2344,18.1781,0.0777,,118.206,79.484,16,16.844,33.5972,,277.43,3.670,0.131,0.0,0.00,0.27,0.24,0.58
CalCOFI,2007SR,005,6,2007_005d,14-Jul-2020 03:52:08,13-Jul-2020 19:52:08,32.84622,-117.53024,093.3 030.0,093.3,030.0,17.000,17.121,,18.0509,,18.0348,,18.0429,33.5908,,33.5910,33.5954,,33.5970,33.5940,6.3654,,6.6335,6.6409,4.3078,,6.3428,5.7299,6.1854,277.569,289.2662,286.2901,187.844,513.3494,229.7384,258.0143,0.2028,,1.9653,2.6585,-99.0,,-99.0,,24.1813,,24.1888,,0.8982,79.8888,,8.258,,5.7128E+00,,1.0000E-12,,18.0480,18.0319,0.0814,,117.629,79.583,,,,,,,,,,,,
CalCOFI,2007SR,005,6,2007_005d,14-Jul-2020 03:52:10,13-Jul-2020 19:52:10,32.84622,-117.53024,093.3 030.0,093.3,030.0,18.000,18.128,,17.9406,,17.9166,,17.9286,33.5907,,33.5909,33.5947,,33.5963,33.5936,6.3111,,6.5768,6.5841,4.3247,,6.3832,5.7665,6.1753,275.190,286.7827,283.8452,188.574,507.5307,231.1742,257.5097,0.2025,,1.9618,2.6534,-99.0,,-99.0,,24.2082,,24.2171,,0.8736,80.3813,,8.255,,5.7128E+00,,1.0000E-12,,17.9375,17.9136,0.0852,,116.380,79.716,,,,,,,,,,,,
CalCOFI,2007SR,005,6,2007_005d,14-Jul-2020 03:52:12,13-Jul-2020 19:52:12,32.84622,-117.53024,093.3 030.0,093.3,030.0,19.000,19.136,,17.6890,,17.6570,,17.6730,33.5811,,33.5813,33.5883,,33.5899,33.5856,6.2682,,6.5319,6.5392,4.3528,,6.4502,5.8272,6.1832,273.307,284.8171,281.9101,189.787,502.9251,233.5599,257.7350,0.2289,,2.2746,3.1076,-99.0,,-99.0,,24.2619,,24.2751,,0.8814,80.2244,,8.252,,5.7128E+00,,1.0000E-12,,17.6858,17.6538,0.0889,,115.032,79.834,,,,,,,,,,,,
CalCOFI,2007SR,005,6,2007_005d,14-Jul-2020 03:52:14,13-Jul-2020 19:52:14,32.84622,-117.53024,093.3 030.0,093.3,030.0,20.000,20.143,,17.4881,,17.4603,,17.4742,33.5836,,33.5838,33.5894,,33.5910,33.5874,6.0843,,6.3398,6.3469,4.3775,,6.5092,5.8805,6.1137,265.273,276.4304,273.6535,190.857,483.2751,235.6644,254.6590,0.2295,,2.2817,3.1181,-99.0,,-99.0,,24.3122,,24.3233,,0.8760,80.3335,,8.247,,5.7128E+00,,1.0000E-12,,17.4848,17.4570,0.0926,,111.230,79.988,,,,,,,,,,,,
CalCOFI,2007SR,005,6,2007_005d,14-Jul-2020 03:52:16,13-Jul-2020 19:52:16,32.84622,-117.53024,093.3 030.0,093.3,030.0,21.000,21.150,,17.2600,,17.2066,,17.2333,33.5811,,33.5813,33.5924,,33.5940,33.5877,5.9129,,6.1607,6.1677,4.4126,,6.5930,5.9564,6.0621,257.788,268.6168,265.9611,192.378,464.9678,238.6559,252.3085,0.2568,,2.6056,3.6005,0.0001,,0.0000,,24.3647,,24.3861,,0.8921,80.0103,,8.242,,5.7128E+00,,1.0000E-12,,17.2566,17.2031,0.0962,,107.625,80.240,21,15.484,33.5852,5.949,259.26,3.307,0.143,0.0,0.00,0.33,0.33,1.72
CalCOFI,2007SR,005,6,2007_005d,14-Jul-2020 03:52:18,13-Jul-2020 19:52:18,32.84622,-117.53024,093.3 030.0,093.3,030.0,22.000,22.157,,16.8598,,16.8211,,16.8405,33.5759,,33.5761,33.5835,,33.5851,33.5806,5.8394,,6.0839,6.0908,4.4547,,6.6935,6.0473,6.0691,254.562,265.2492,262.6457,194.195,457.0775,242.2296,252.4377,0.2694,,2.7552,3.8274,0.0049,,0.0000,,24.4550,,24.4699,,0.9055,79.7417,,8.232,,5.7128E+00,,1.0000E-12,,16.8563,16.8175,0.0997,,105.468,80.400,,,,,,,,,,,,
CalCOFI,2007SR,005,6,2007_005d,14-Jul-2020 03:52:20,13-Jul-2020 19:52:20,32.84622,-117.53024,093.3 030.0,093.3,030.0,23.000,23.164,,16.1583,,16.0443,,16.1013,33.5758,,33.5760,33.5738,,33.5754,33.5757,5.6689,,5.9057,5.9125,4.5247,,6.8606,6.1986,6.0556,247.091,257.4502,254.9677,197.212,438.8045,248.1635,251.5656,0.2685,,2.7446,3.8111,0.0322,,0.0000,,24.6173,,24.6415,,0.9070,79.7126,,8.212,,5.7128E+00,,1.0000E-12,,16.1547,16.0407,0.1032,,101.001,80.434,,,,,,,,,,,,
CalCOFI,2007SR,005,6,2007_005d,14-Jul-2020 03:52:23,13-Jul-2020 19:52:23,32.84622,-117.53024,093.3 030.0,093.3,030.0,24.000,24.171,,15.6838,,15.5592,,15.6215,33.5412,,33.5414,33.5727,,33.5743,33.5579,5.5462,,5.7775,5.7841,4.5571,,6.9380,6.2686,6.0264,241.721,251.8445,249.4489,198.606,425.6703,250.9052,250.1771,0.2438,,2.4513,3.3692,0.0683,,0.0000,,24.6975,,24.7496,,0.8722,80.4089,,8.196,,5.7128E+00,,1.0000E-12,,15.6801,15.5555,0.1065,,97.876,80.241,,,,,,,,,,,,
CalCOFI,2007SR,005,6,2007_005d,14-Jul-2020 03:52:24,13-Jul-2020 19:52:24,32.84622,-117.53024,093.3 030.0,093.3,030.0,25.000,25.179,,15.4223,,15.3735,,15.3979,33.5594,,33.5596,33.5701,,33.5717,33.5657,5.5319,,5.7626,5.7692,4.5562,,6.9358,6.2666,6.0179,241.082,251.1774,248.7922,198.560,424.1073,250.8148,249.8035,0.2120,,2.0743,2.8155,0.0949,,0.0000,,24.7697,,24.7887,,0.8632,80.5907,,8.186,,5.7128E+00,,1.0000E-12,,15.4185,15.3697,0.1097,,97.133,79.930,,,,,,,,,,,,
CalCOFI,2007SR,005,6,2007_005d,14-Jul-2020 03:52:26,13-Jul-2020 19:52:26,32.84622,-117.53024,093.3 030.0,093.3,030.0,26.000,26.186,,15.1297,,15.1188,,15.1243,33.5691,,33.5693,33.5784,,33.5800,33.5747,5.4458,,5.6726,5.6791,4.5741,,6.9785,6.3053,5.9922,237.315,247.2450,244.9209,199.326,414.8938,252.3213,248.6211,0.1725,,1.6068,2.1514,0.1251,,0.0000,,24.8415,,24.8510,,0.8348,81.1642,,8.172,,5.7128E+00,,1.0000E-12,,15.1258,15.1148,0.1128,,95.075,79.842,,,,,,,,,,,,
CalCOFI,2007SR,005,6,2007_005d,14-Jul-2020 03:52:29,13-Jul-2020 19:52:29,32.84622,-117.53024,093.3 030.0,093.3,030.0,27.000,27.193,,14.8401,,14.8528,,14.8465,33.5601,,33.5603,33.5826,,33.5842,33.5723,5.1755,,5.3902,5.3965,4.5887,,7.0134,6.3369,5.8667,225.524,234.9364,232.8032,199.949,386.0547,253.5467,243.1750,0.1473,,1.3091,1.7415,0.1606,,0.0000,,24.8974,,24.9120,,0.8024,81.8246,,8.154,,5.7128E+00,,1.0000E-12,,14.8361,14.8488,0.1159,,89.831,79.675,,,,,,,,,,,,
CalCOFI,2007SR,005,6,2007_005d,14-Jul-2020 03:52:30,13-Jul-2020 19:52:30,32.84622,-117.53024,093.3 030.0,093.3,030.0,28.000,28.200,,14.3663,,14.3566,,14.3615,33.5537,,33.5539,33.5590,,33.5606,33.5573,4.9959,,5.2025,5.2086,4.6170,,7.0810,6.3980,5.8033,217.675,226.7428,224.7367,201.165,366.8572,255.9383,240.3375,0.1239,,1.0330,1.3705,0.1667,,0.0000,,24.9936,,24.9997,,0.7693,82.5035,,8.140,,5.7128E+00,,1.0000E-12,,14.3622,14.3525,0.1190,,85.888,79.360,,,,,,,,,,,,
CalCOFI,2007SR,005,6,2007_005d,14-Jul-2020 03:52:32,13-Jul-2020 19:52:32,32.84622,-117.53024,093.3 030.0,093.3,030.0,29.000,29.208,,14.1432,,14.1129,,14.1281,33.5584,,33.5586,33.5673,,33.5689,33.5638,4.8988,,5.1011,5.1071,4.6201,,7.0884,6.4047,5.7559,213.437,222.3188,220.3813,201.288,356.4916,256.1802,238.2808,0.1113,,0.8845,1.1746,0.1622,,0.0000,,25.0441,,25.0573,,0.7608,82.6802,,8.127,,5.7128E+00,,1.0000E-12,,14.1391,14.1087,0.1219,,83.843,79.028,,,,,,,,,,,,
CalCOFI,2007SR,005,6,2007_005d,14-Jul-2020 03:52:34,13-Jul-2020 19:52:34,32.84622,-117.53024,093.3 030.0,093.3,030.0,30.000,30.215,,13.9049,,13.8801,,13.8925,33.5625,,33.5627,33.5711,,33.5727,33.5677,4.8547,,5.0550,5.0609,4.6231,,7.0955,6.4112,5.7361,211.502,220.2988,218.3927,201.410,351.7589,256.4202,237.4065,0.1157,,0.9363,1.2427,0.1482,,0.0000,,25.0969,,25.1087,,0.7539,82.8229,,8.111,,5.7128E+00,,1.0000E-12,,13.9007,13.8758,0.1248,,82.689,78.709,,,,,,,,,,,,
CalCOFI,2007SR,005,6,2007_005d,14-Jul-2020 03:52:36,13-Jul-2020 19:52:36,32.84622,-117.53024,093.3 030.0,093.3,030.0,31.000,31.222,,13.6194,,13.6221,,13.6208,33.5601,,33.5603,33.5687,,33.5703,33.5653,4.8041,,5.0021,5.0080,4.6059,,7.0545,6.3740,5.6910,209.287,217.9866,216.1163,200.651,346.3413,254.9274,235.5219,0.1035,,0.7926,1.0547,0.1059,,0.0000,,25.1538,,25.1599,,0.7400,83.1117,,8.089,,5.7128E+00,,1.0000E-12,,13.6150,13.6177,0.1277,,81.352,78.004,,,,,,,,,,,,
CalCOFI,2007SR,005,6,2007_005d,14-Jul-2020 03:52:39,13-Jul-2020 19:52:39,32.84622,-117.53024,093.3 030.0,093.3,030.0,32.000,32.229,,13.4664,,13.4499,,13.4582,33.5612,,33.5614,33.5685,,33.5701,33.5658,4.7284,,4.9230,4.9289,4.5829,,6.9996,6.3243,5.6266,205.983,214.5376,212.7208,199.641,338.2602,252.9409,232.8309,0.0949,,0.6913,0.9236,0.0595,,0.0000,,25.1857,,25.1947,,0.7310,83.2975,,8.075,,5.7128E+00,,1.0000E-12,,13.4619,13.4455,0.1305,,79.821,77.341,32,13.277,33.5727,,212.27,0.957,0.193,0.41,0.160,0.28,0.58,4.79
CalCOFI,2007SR,005,6,2007_005d,14-Jul-2020 03:52:40,13-Jul-2020 19:52:40,32.84622,-117.53024,093.3 030.0,093.3,030.0,33.000,33.237,,13.3995,,13.3943,,13.3969,33.5643,,33.5645,33.5694,,33.5710,33.5678,4.5869,,4.7752,4.7809,4.5652,,6.9573,6.2861,5.5335,199.817,208.1009,206.3839,198.868,323.1790,251.4205,228.9022,0.0981,,0.7290,0.9722,0.0323,,0.0000,,25.2017,,25.2067,,0.7272,83.3772,,8.066,,5.7128E+00,,1.0000E-12,,13.3950,13.3898,0.1333,,77.328,76.955,,,,,,,,,,,,
CalCOFI,2007SR,005,6,2007_005d,14-Jul-2020 03:52:42,13-Jul-2020 19:52:42,32.84622,-117.53024,093.3 030.0,093.3,030.0,34.000,34.244,,13.2262,,13.2057,,13.2160,33.5549,,33.5551,33.5619,,33.5635,33.5593,4.4333,,4.6147,4.6202,4.5623,,6.9504,6.2798,5.4500,193.118,201.1078,199.4993,198.737,306.7942,251.1629,225.3311,0.0973,,0.7196,0.9601,0.0125,,0.0000,,25.2293,,25.2388,,0.7231,83.4618,,8.056,,5.7128E+00,,1.0000E-12,,13.2215,13.2010,0.1361,,74.469,76.606,,,,,,,,,,,,
CalCOFI,2007SR,005,6,2007_005d,14-Jul-2020 03:52:44,13-Jul-2020 19:52:44,32.84622,-117.53024,093.3 030.0,093.3,030.0,35.000,35.251,,12.9886,,12.9761,,12.9824,33.5616,,33.5618,33.5681,,33.5697,33.5658,4.1654,,4.3347,4.3400,4.5618,,6.9492,6.2787,5.3094,181.439,188.9161,187.4967,198.703,278.2291,251.0960,219.2964,0.0878,,0.6077,0.8163,0.0016,,0.0000,,25.2818,,25.2893,,0.7215,83.4954,,8.041,,5.7128E+00,,1.0000E-12,,12.9839,12.9714,0.1388,,69.633,76.239,,,,,,,,,,,,
CalCOFI,2007SR,005,6,2007_005d,14-Jul-2020 03:52:46,13-Jul-2020 19:52:46,32.84622,-117.53024,093.3 030.0,093.3,030.0,36.000,36.258,,12.7446,,12.7294,,12.7370,33.5892,,33.5894,33.5969,,33.5985,33.5940,4.0036,,4.1657,4.1708,4.5448,,6.9086,6.2420,5.2064,174.380,181.5472,180.2422,197.950,260.9637,249.6150,214.9286,0.0803,,0.5194,0.7040,-99.0,,-99.0,,25.3513,,25.3602,,0.7129,83.6757,,8.019,,5.7128E+00,,1.0000E-12,,12.7398,12.7246,0.1415,,66.599,75.582,,,,,,,,,,,,
CalCOFI,2007SR,005,6,2007_005d,14-Jul-2020 03:52:48,13-Jul-2020 19:52:48,32.84622,-117.53024,093.3 030.0,093.3,030.0,37.000,37.266,,12.5084,,12.5064,,12.5074,33.6110,,33.6112,33.6155,,33.6171,33.6142,4.0178,,4.1805,4.1857,4.5252,,6.8618,6.1997,5.1927,174.987,182.1808,180.8660,197.087,262.4484,247.9176,214.3918,0.0702,,0.4006,0.5541,-99.0,,-99.0,,25.4142,,25.4180,,0.7027,83.8890,,8.001,,5.7128E+00,,1.0000E-12,,12.5035,12.5015,0.1441,,66.518,74.918,,,,,,,,,,,,
CalCOFI,2007SR,005,6,2007_005d,14-Jul-2020 03:52:50,13-Jul-2020 19:52:50,32.84622,-117.53024,093.3 030.0,093.3,030.0,38.000,38.273,,12.4316,,12.4314,,12.4315,33.6121,,33.6123,33.6157,,33.6173,33.6148,4.0322,,4.1955,4.2007,4.4879,,6.7728,6.1191,5.1599,175.614,182.8354,181.5104,195.460,263.9819,244.7176,213.1140,0.0719,,0.4206,0.5792,-99.0,,-99.0,,25.4299,,25.4327,,0.6985,83.9763,,7.987,,5.7128E+00,,1.0000E-12,,12.4266,12.4264,0.1467,,66.651,74.184,,,,,,,,,,,,
CalCOFI,2007SR,005,6,2007_005d,14-Jul-2020 03:52:52,13-Jul-2020 19:52:52,32.84622,-117.53024,093.3 030.0,093.3,030.0,39.000,39.280,,12.3755,,12.3771,,12.3763,33.6068,,33.6070,33.6108,,33.6124,33.6097,4.0603,,4.2249,4.2301,4.4449,,6.6701,6.0262,5.1282,176.836,184.1110,182.7662,193.586,266.9708,241.0318,211.8990,0.0689,,0.3854,0.5350,-99.0,,-99.0,,25.4366,,25.4394,,0.6952,84.0461,,7.978,,5.7128E+00,,1.0000E-12,,12.3704,12.3720,0.1492,,67.034,73.388,,,,,,,,,,,,
CalCOFI,2007SR,005,6,2007_005d,14-Jul-2020 03:52:54,13-Jul-2020 19:52:54,32.84622,-117.53024,093.3 030.0,093.3,030.0,40.000,40.287,,12.3305,,12.3305,,12.3305,33.5996,,33.5998,33.6038,,33.6054,33.6026,4.0668,,4.2317,4.2369,4.4073,,6.5803,5.9449,5.0909,177.118,184.4054,183.0560,191.944,267.6605,237.8023,210.4292,0.0705,,0.4042,0.5586,-99.0,,-99.0,,25.4397,,25.4430,,0.6953,84.0454,,7.972,,5.7128E+00,,1.0000E-12,,12.3253,12.3252,0.1518,,67.075,72.692,,,,,,,,,,,,
CalCOFI,2007SR,005,6,2007_005d,14-Jul-2020 03:52:56,13-Jul-2020 19:52:56,32.84622,-117.53024,093.3 030.0,093.3,030.0,41.000,41.295,,12.2955,,12.2968,,12.2962,33.5969,,33.5971,33.6008,,33.6024,33.5998,4.0570,,4.2215,4.2267,4.3699,,6.4911,5.8641,5.0454,176.688,183.9565,182.6141,190.314,266.6088,234.5964,208.6053,0.0734,,0.4383,0.6014,-99.0,,-99.0,,25.4443,,25.4471,,0.6930,84.0929,,7.969,,5.7128E+00,,1.0000E-12,,12.2902,12.2914,0.1543,,66.863,72.023,41,12.212,33.5977,,180.47,0.433,0.181,6.06,0.268,0.15,0.95,9.03
CalCOFI,2007SR,005,6,2007_005d,14-Jul-2020 03:52:58,13-Jul-2020 19:52:58,32.84622,-117.53024,093.3 030.0,093.3,030.0,42.000,42.302,,12.2612,,12.2546,,12.2579,33.5911,,33.5913,33.5952,,33.5968,33.5941,4.0372,,4.2008,4.2060,4.3336,,6.4044,5.7857,4.9959,175.828,183.0587,181.7303,188.735,264.5053,231.4908,206.6106,0.0738,,0.4430,0.6073,-99.0,,-99.0,,25.4464,,25.4508,,0.6926,84.1013,,7.965,,5.7128E+00,,1.0000E-12,,12.2557,12.2492,0.1569,,66.487,71.360,,,,,,,,,,,,
CalCOFI,2007SR,005,6,2007_005d,14-Jul-2020 03:53:00,13-Jul-2020 19:53:00,32.84622,-117.53024,093.3 030.0,093.3,030.0,43.000,43.309,,12.1498,,12.1459,,12.1479,33.5902,,33.5904,33.5926,,33.5942,33.5923,4.0209,,4.1837,4.1889,4.2927,,6.3068,5.6973,4.9431,175.114,182.3134,180.9965,186.948,262.7590,227.9761,204.4863,0.0687,,0.3830,0.5320,-99.0,,-99.0,,25.4669,,25.4695,,0.6899,84.1579,,7.961,,5.7128E+00,,1.0000E-12,,12.1442,12.1404,0.1594,,66.064,70.525,,,,,,,,,,,,
CalCOFI,2007SR,005,6,2007_005d,14-Jul-2020 03:53:03,13-Jul-2020 19:53:03,32.84622,-117.53024,093.3 030.0,093.3,030.0,44.000,44.317,,12.0926,,12.0955,,12.0941,33.5932,,33.5934,33.5967,,33.5983,33.5959,4.0021,,4.1641,4.1693,4.2432,,6.1886,5.5904,4.8799,174.295,181.4585,180.1548,184.794,260.7558,223.7396,201.9472,0.0709,,0.4089,0.5645,-99.0,,-99.0,,25.4801,,25.4823,,0.6863,84.2344,,7.957,,5.7128E+00,,1.0000E-12,,12.0869,12.0898,0.1620,,65.678,69.641,,,,,,,,,,,,
CalCOFI,2007SR,005,6,2007_005d,14-Jul-2020 03:53:04,13-Jul-2020 19:53:04,32.84622,-117.53024,093.3 030.0,093.3,030.0,45.000,45.324,,12.0746,,12.0757,,12.0752,33.5963,,33.5965,33.5996,,33.6012,33.5989,4.0010,,4.1629,4.1681,4.2145,,6.1201,5.5284,4.8483,174.243,181.4042,180.1014,183.540,260.6287,221.2732,200.6873,0.0685,,0.3806,0.5291,-99.0,,-99.0,,25.4860,,25.4883,,0.6870,84.2197,,7.954,,5.7128E+00,,1.0000E-12,,12.0688,12.0699,0.1645,,65.636,69.141,,,,,,,,,,,,
CalCOFI,2007SR,005,6,2007_005d,14-Jul-2020 03:53:06,13-Jul-2020 19:53:06,32.84622,-117.53024,093.3 030.0,093.3,030.0,46.000,46.331,,12.0691,,12.0698,,12.0695,33.5971,,33.5973,33.6004,,33.6020,33.5997,3.9791,,4.1401,4.1452,4.1888,,6.0587,5.4728,4.8090,173.290,180.4093,179.1220,182.421,258.2978,219.0724,199.0972,0.0688,,0.3842,0.5335,-99.0,,-99.0,,25.4876,,25.4900,,0.6898,84.1598,,7.951,,5.7128E+00,,1.0000E-12,,12.0632,12.0639,0.1670,,65.270,68.712,,,,,,,,,,,,
CalCOFI,2007SR,005,6,2007_005d,14-Jul-2020 03:53:08,13-Jul-2020 19:53:08,32.84622,-117.53024,093.3 030.0,093.3,030.0,47.000,47.339,,12.0390,,12.0489,,12.0440,33.5954,,33.5956,33.6003,,33.6019,33.5988,3.9132,,4.0712,4.0763,4.1556,,5.9795,5.4011,4.7387,170.418,177.4113,176.1704,180.975,251.2733,216.2283,196.1994,0.0694,,0.3912,0.5423,-99.0,,-99.0,,25.4920,,25.4940,,0.6875,84.2090,,7.948,,5.7128E+00,,1.0000E-12,,12.0330,12.0428,0.1695,,64.147,68.137,,,,,,,,,,,,
CalCOFI,2007SR,005,6,2007_005d,14-Jul-2020 03:53:11,13-Jul-2020 19:53:11,32.84622,-117.53024,093.3 030.0,093.3,030.0,48.000,48.346,,11.8845,,11.8993,,11.8919,33.6003,,33.6005,33.6034,,33.6050,33.6028,3.8388,,3.9935,3.9985,4.1352,,5.9308,5.3570,4.6778,167.173,174.0238,172.8355,180.083,243.3365,214.4740,193.6548,0.0665,,0.3571,0.4997,-99.0,,-99.0,,25.5250,,25.5245,,0.6825,84.3153,,7.943,,5.7128E+00,,1.0000E-12,,11.8784,11.8932,0.1720,,62.726,67.592,,,,,,,,,,,,
CalCOFI,2007SR,005,6,2007_005d,14-Jul-2020 03:53:12,13-Jul-2020 19:53:12,32.84622,-117.53024,093.3 030.0,093.3,030.0,49.000,49.353,,11.8173,,11.8201,,11.8187,33.6074,,33.6076,33.6112,,33.6128,33.6102,3.7870,,3.9393,3.9443,4.1158,,5.8844,5.3151,4.6297,164.915,171.6667,170.5149,179.233,237.8137,212.8022,191.6586,0.0658,,0.3489,0.4894,-99.0,,-99.0,,25.5430,,25.5454,,0.6803,84.3598,,7.939,,5.7128E+00,,1.0000E-12,,11.8110,11.8139,0.1745,,61.795,67.166,,,,,,,,,,,,